CW3081 Weather Reports


Display with metric or nautical units.
time (UTC)temp
F
wind
direction
speed
MPH
gust
MPH
rain 1hr
in
rain 24hr
in
rain mn
in
humidity
%
barometer
mb
20260504234545 75 231 1.0 2.0 0.00 0.00 0.00 44 1010.2
20260504233043 75 233 1.0 3.0 0.00 0.00 0.00 42 1010.3
20260504231551 76 227 2.0 4.0 0.00 0.00 0.00 42 1010.3
20260504230046 76 255 2.0 4.0 0.00 0.00 0.00 43 1010.2
20260504224546 76 211 2.0 6.0 0.00 0.00 0.00 43 1010.2
20260504223059 77 240 0.0 4.0 0.00 0.00 0.00 44 1010.1
20260504221556 77 205 2.0 6.0 0.00 0.00 0.00 41 1010.2
20260504220051 77 263 2.0 6.0 0.00 0.00 0.00 42 1010.0
20260504214558 78 236 1.0 5.0 0.00 0.00 0.00 43 1009.9
20260504213059 78 239 2.0 6.0 0.00 0.00 0.00 42 1010.1
20260504211549 78 277 2.0 5.0 0.00 0.00 0.00 41 1010.0
20260504210045 77 143 1.0 4.0 0.00 0.00 0.00 46 1010.2
20260504204553 78 236 1.0 3.0 0.00 0.00 0.00 45 1010.2
20260504203049 78 248 1.0 4.0 0.00 0.00 0.00 47 1010.4
20260504201552 78 253 2.0 5.0 0.00 0.00 0.00 46 1010.6
20260504200047 79 271 2.0 5.0 0.00 0.00 0.00 43 1010.8
20260504194549 79 264 1.0 5.0 0.00 0.00 0.00 44 1010.9
20260504193041 78 261 2.0 5.0 0.00 0.00 0.00 45 1011.2
20260504191548 79 182 1.0 4.0 0.00 0.00 0.00 46 1011.3
20260504190048 78 274 3.0 5.0 0.00 0.00 0.00 46 1011.5
20260504184542 78 226 2.0 4.0 0.00 0.00 0.00 48 1011.7
20260504183046 78 226 2.0 6.0 0.00 0.00 0.00 49 1011.7
20260504181550 78 214 2.0 4.0 0.00 0.00 0.00 49 1012.0
20260504180049 77 276 2.0 4.0 0.00 0.00 0.00 51 1012.1
20260504174550 77 180 0.0 4.0 0.00 0.00 0.00 53 1012.1
20260504173049 76 272 2.0 4.0 0.00 0.00 0.00 52 1012.5
20260504171549 76 261 2.0 3.0 0.00 0.00 0.00 54 1012.5
20260504081551 54 0 0.0 1.0 0.00 0.00 0.00 68 1013.7
20260504044542 55 217 0.0 1.0 0.00 0.00 0.00 65 1014.8
20260504043042 55 215 0.0 1.0 0.00 0.00 0.00 64 1015.0
20260504041546 54 215 0.0 1.0 0.00 0.00 0.00 65 1015.1
20260504040107 53 208 0.0 1.0 0.00 0.00 0.00 67 1015.3
20260504034545 52 0 0.0 0.0 0.00 0.00 0.00 72 1015.5
20260504033047 52 0 0.0 0.0 0.00 0.00 0.00 71 1015.6
20260504031542 53 0 0.0 0.0 0.00 0.00 0.00 69 1015.6
20260504030049 53 0 0.0 1.0 0.00 0.00 0.00 71 1015.7
20260504024547 55 0 0.0 0.0 0.00 0.00 0.00 70 1015.7
20260504023053 56 0 0.0 0.0 0.00 0.00 0.00 62 1015.6
20260504021542 56 207 0.0 1.0 0.00 0.00 0.00 61 1015.3
20260504020042 56 247 0.0 1.0 0.00 0.00 0.00 61 1015.3
20260504014559 56 247 0.0 1.0 0.00 0.00 0.00 61 1015.2
20260504013046 57 0 0.0 0.0 0.00 0.00 0.00 60 1015.0
20260504011543 57 0 0.0 1.0 0.00 0.00 0.00 61 1014.9
20260504010054 58 247 0.0 1.0 0.00 0.00 0.00 59 1015.1
20260504004549 60 0 0.0 0.0 0.00 0.00 0.00 57 1015.4
20260504003055 62 0 0.0 0.0 0.00 0.00 0.00 52 1015.3
20260504001601 63 0 0.0 1.0 0.00 0.00 0.00 47 1015.4
20260504000047 64 0 0.0 1.0 0.00 0.00 0.00 44 1015.3